User: anonymous   Login
Location: Deer Lake
(49.1830°N, 57.4330°W)
Time: 17:10:44
(UTC-02:-30)
Language:

NOSS 3-1 (C) - Orbit

View from above orbital plane
View from above orbital plane
View from above satellite
View from above satellite

Ground track
Ground track

The orbit data is extracted from the following two-line orbital elements,

1 26907U 01040C   14292.12496796 0.00000000  00000-0  00000-0 0    04
2 26907  63.4213 351.0341 0284000 358.2256   1.7744 13.41203874    03
Epoch (UTC): 19 October 2014 02:59:57
Eccentricity: 0.0284000
inclination: 63.4213°
perigee height: 892 km
apogee height: 1317 km
right ascension of ascending node: 351.0341°
argument of perigee: 358.2256°
revolutions per day: 13.41203874
mean anomaly at epoch: 1.7744°
orbit number at epoch: 0

The dashed part of the orbit path shows where the satellite is in the earth's shadow,  

DLR